TimeCDT,TemperatureF,Dew PointF,Humidity,Sea Level PressureIn,VisibilityMPH,Wind Direction,Wind SpeedMPH,Gust SpeedMPH,PrecipitationIn,Events,Conditions,WindDirDegrees,DateUTC
12:15 AM,46.4,30.2,53,29.44,10.0,WNW,16.1,-,N/A,,Overcast,290,2012-10-18 05:15:00
12:35 AM,46.4,30.2,53,29.44,10.0,WNW,17.3,25.3,N/A,,Overcast,290,2012-10-18 05:35:00
12:55 AM,46.4,30.2,53,29.44,10.0,WNW,13.8,21.9,N/A,,Overcast,290,2012-10-18 05:55:00
1:15 AM,46.4,30.2,53,29.43,10.0,WNW,19.6,-,N/A,,Overcast,290,2012-10-18 06:15:00
1:35 AM,46.4,30.2,53,29.42,10.0,WNW,31.1,39.1,N/A,,Overcast,290,2012-10-18 06:35:00
1:55 AM,46.4,32.0,57,29.42,10.0,WNW,33.4,40.3,N/A,,Overcast,290,2012-10-18 06:55:00
2:15 AM,46.4,33.8,62,29.42,10.0,WNW,27.6,36.8,N/A,,Overcast,300,2012-10-18 07:15:00
2:35 AM,46.4,33.8,62,29.42,10.0,WNW,27.6,36.8,N/A,,Overcast,300,2012-10-18 07:35:00
2:55 AM,44.6,33.8,66,29.42,10.0,WNW,21.9,34.5,N/A,,Overcast,300,2012-10-18 07:55:00
3:15 AM,44.6,33.8,66,29.41,10.0,WNW,26.5,33.4,N/A,,Overcast,300,2012-10-18 08:15:00
3:35 AM,44.6,33.8,66,29.40,10.0,WNW,28.8,35.7,N/A,,Overcast,300,2012-10-18 08:35:00
3:55 AM,42.8,35.6,76,29.40,10.0,WNW,25.3,33.4,N/A,,Light Drizzle,290,2012-10-18 08:55:00
4:15 AM,42.8,35.6,76,29.40,7.0,WNW,26.5,40.3,N/A,,Light Drizzle,290,2012-10-18 09:15:00
4:35 AM,41.0,37.4,87,29.39,6.0,WNW,26.5,34.5,N/A,,Light Drizzle,290,2012-10-18 09:35:00
4:55 AM,41.0,37.4,87,29.39,4.0,West,33.4,44.9,N/A,,Light Drizzle,280,2012-10-18 09:55:00
5:15 AM,41.0,37.4,87,29.38,5.0,West,27.6,40.3,N/A,,Light Drizzle,280,2012-10-18 10:15:00
5:35 AM,41.0,37.4,87,29.38,4.0,West,27.6,38.0,N/A,Rain,Light Rain,280,2012-10-18 10:35:00
5:55 AM,41.0,37.4,87,29.37,5.0,West,27.6,39.1,0.02,Rain,Light Rain,280,2012-10-18 10:55:00
6:35 AM,39.2,37.4,93,29.36,4.0,WNW,39.1,49.5,N/A,Rain,Light Rain,290,2012-10-18 11:35:00
6:55 AM,39.2,37.4,93,29.35,5.0,West,34.5,46.0,0.03,,Overcast,280,2012-10-18 11:55:00
7:15 AM,39.2,37.4,93,29.35,4.0,West,32.2,40.3,N/A,,Overcast,280,2012-10-18 12:15:00
7:35 AM,39.2,37.4,93,29.34,4.0,West,29.9,42.6,N/A,,Overcast,280,2012-10-18 12:35:00
7:55 AM,39.2,37.4,93,29.34,2.5,West,29.9,40.3,0.03,,Overcast,280,2012-10-18 12:55:00
8:15 AM,39.2,37.4,93,29.34,3.0,West,31.1,42.6,N/A,Rain,Light Rain,280,2012-10-18 13:15:00
8:35 AM,39.2,37.4,93,29.33,3.0,West,28.8,41.4,N/A,Rain,Light Rain,280,2012-10-18 13:35:00
8:55 AM,39.2,37.4,93,29.33,2.5,West,29.9,43.7,0.04,,Mostly Cloudy,280,2012-10-18 13:55:00
9:15 AM,39.2,39.2,100,29.33,3.0,WNW,32.2,41.4,N/A,Rain,Light Rain,290,2012-10-18 14:15:00
9:35 AM,39.2,39.2,100,29.33,3.0,WNW,31.1,38.0,N/A,Rain,Light Rain,290,2012-10-18 14:35:00
9:55 AM,41.0,39.2,93,29.32,2.5,WNW,32.2,42.6,0.03,Rain,Light Rain,290,2012-10-18 14:55:00
10:15 AM,41.0,39.2,93,29.32,2.5,WNW,29.9,41.4,N/A,Rain,Light Rain,290,2012-10-18 15:15:00
10:35 AM,39.2,39.2,100,29.32,3.0,WNW,32.2,43.7,N/A,Rain,Light Rain,290,2012-10-18 15:35:00
10:55 AM,39.2,39.2,100,29.32,3.0,WNW,36.8,44.9,0.04,Rain,Light Rain,290,2012-10-18 15:55:00
11:15 AM,41.0,39.2,93,29.32,3.0,WNW,26.5,35.7,N/A,Rain,Light Rain,290,2012-10-18 16:15:00
11:35 AM,39.2,39.2,100,29.31,3.0,WNW,28.8,40.3,N/A,Rain,Light Rain,290,2012-10-18 16:35:00
11:55 AM,41.0,39.2,93,29.31,3.0,WNW,28.8,35.7,0.05,Rain,Rain,290,2012-10-18 16:55:00
12:15 PM,41.0,39.2,93,29.31,4.0,WNW,28.8,36.8,N/A,Rain,Light Rain,290,2012-10-18 17:15:00
12:35 PM,41.0,41.0,100,29.31,6.0,WNW,25.3,38.0,N/A,Rain,Light Rain,290,2012-10-18 17:35:00
12:55 PM,42.8,41.0,93,29.30,5.0,WNW,28.8,36.8,0.04,Rain,Light Rain,290,2012-10-18 17:55:00
1:15 PM,42.8,41.0,93,29.30,4.0,WNW,28.8,36.8,N/A,,Light Drizzle,290,2012-10-18 18:15:00
1:35 PM,42.8,41.0,93,29.30,2.5,WNW,23.0,38.0,N/A,Rain,Light Rain,300,2012-10-18 18:35:00
1:55 PM,42.8,41.0,93,29.30,2.5,WNW,28.8,34.5,0.02,Rain,Light Rain,300,2012-10-18 18:55:00
2:15 PM,42.8,41.0,93,29.30,3.0,WNW,24.2,31.1,N/A,Rain,Light Rain,300,2012-10-18 19:15:00
2:35 PM,42.8,41.0,93,29.30,3.0,WNW,27.6,34.5,N/A,Rain,Light Rain,300,2012-10-18 19:35:00
2:55 PM,42.8,41.0,93,29.30,2.5,WNW,21.9,28.8,0.02,,Light Drizzle,300,2012-10-18 19:55:00
3:15 PM,42.8,42.8,100,29.31,6.0,WNW,23.0,29.9,N/A,,Light Drizzle,300,2012-10-18 20:15:00
3:35 PM,44.6,42.8,93,29.32,4.0,WNW,23.0,29.9,N/A,Rain,Light Rain,300,2012-10-18 20:35:00
3:55 PM,44.6,42.8,93,29.32,4.0,NW,21.9,29.9,0.02,Rain,Light Rain,310,2012-10-18 20:55:00
4:15 PM,44.6,44.6,100,29.33,3.0,NW,20.7,28.8,N/A,Rain,Light Rain,310,2012-10-18 21:15:00
4:35 PM,46.4,44.6,93,29.34,5.0,NW,19.6,29.9,N/A,Rain,Light Rain,310,2012-10-18 21:35:00
4:55 PM,46.4,44.6,93,29.36,3.0,NW,17.3,28.8,0.03,Rain,Light Rain,320,2012-10-18 21:55:00
5:15 PM,46.4,44.6,93,29.37,6.0,NW,21.9,31.1,N/A,Rain,Light Rain,320,2012-10-18 22:15:00
5:35 PM,46.4,44.6,93,29.38,1.5,NW,25.3,32.2,N/A,Rain,Light Rain,320,2012-10-18 22:35:00
5:55 PM,44.6,42.8,93,29.39,5.0,NW,25.3,35.7,0.01,,Overcast,320,2012-10-18 22:55:00
6:15 PM,44.6,42.8,93,29.40,7.0,NW,23.0,35.7,N/A,Rain,Light Rain,320,2012-10-18 23:15:00
6:35 PM,44.6,42.8,93,29.42,10.0,NW,20.7,29.9,N/A,,Overcast,320,2012-10-18 23:35:00
6:55 PM,44.6,44.6,100,29.43,7.0,NW,20.7,-,0.01,Rain,Light Rain,310,2012-10-18 23:55:00
7:15 PM,44.6,44.6,100,29.44,3.0,WNW,17.3,27.6,N/A,Rain,Light Rain,300,2012-10-19 00:15:00
7:35 PM,44.6,44.6,100,29.44,2.5,NW,25.3,33.4,N/A,,Overcast,310,2012-10-19 00:35:00
7:55 PM,44.6,42.8,93,29.45,5.0,NW,25.3,35.7,0.02,Rain,Light Rain,310,2012-10-19 00:55:00
8:15 PM,44.6,42.8,93,29.45,8.0,NW,28.8,38.0,N/A,,Light Drizzle,310,2012-10-19 01:15:00
8:35 PM,42.8,41.0,93,29.46,10.0,NW,26.5,41.4,N/A,,Overcast,310,2012-10-19 01:35:00
9:15 PM,42.8,41.0,93,29.46,8.0,NW,26.5,34.5,N/A,,Light Drizzle,310,2012-10-19 02:15:00
9:35 PM,41.0,39.2,93,29.47,6.0,NW,29.9,40.3,N/A,Rain,Light Rain,310,2012-10-19 02:35:00
9:55 PM,41.0,39.2,93,29.47,3.0,NW,28.8,42.6,N/A,Rain,Light Rain,310,2012-10-19 02:55:00
10:15 PM,41.0,39.2,93,29.47,4.0,NW,23.0,29.9,N/A,Rain,Light Rain,310,2012-10-19 03:15:00
10:35 PM,41.0,39.2,93,29.47,4.0,NW,24.2,35.7,N/A,Rain,Light Rain,310,2012-10-19 03:35:00
10:55 PM,41.0,39.2,93,29.47,5.0,NW,26.5,33.4,0.01,Rain,Light Rain,310,2012-10-19 03:55:00